Regional Weather Roundup
Issued by NWS

Home | Current Version | Previous Version | Text Only | Print | Product List | Glossary Off
Versions: 1 2 3 4 5 6 7 8 9 10 11 12 13 14 15 16 17 18 19 20 21 22 23 24 25 26 27 28 29 30 31 32 33 34 35 36 37 38 39 40 41 42 43 44 45 46 47 48 49 50

000
ASUS43 KIND 210859
RWRIN

WEATHER ROUNDUP FOR INDIANA
NATIONAL WEATHER SERVICE INDIANAPOLIS IN
400 AM EST TUE NOV 21 2017

NOTE: "FAIR" INDICATES FEW OR NO CLOUDS BELOW 12,000 FEET WITH NO
SIGNIFICANT WEATHER AND/OR OBSTRUCTIONS TO VISIBILITY.

* - STATION DOES NOT REPORT WEATHER SUCH AS PRECIPITATION OR FOG.

+ - STATION NOT QUALITY CONTROLLED BY THE NATIONAL WEATHER SERVICE.
    USE DATA WITH CAUTION...ESPECIALLY DEWPOINT AND RELATIVE
    HUMIDITY OBSERVATIONS.

INZ001>003-010>013-019-020-211000-
NORTHWEST INDIANA

CITY           SKY/WX    TMP DP  RH WIND       PRES   REMARKS
KNOX *+        PTCLDY    41  30  65 SW17      29.74F
MICHIGAN CITY+ PTCLDY    43  30  61 S17G29    29.71F
MONTICELLO +   PTCLDY    41  27  57 SW18G25   29.77F
RENSSELAER +   PTCLDY    41  27  56 SW16G25   29.76S

$$

LMZ046-743>745-211000-
SOUTHERN LAKE MICHIGAN

STATION/POSITION TIME  TEMP    WIND        PRES    WAVE
                       AIR SEA DIR/SP/G            HT
                 (UTC) (F)     (DEG/KT/KT) (MB)    (FT)
BURNS HARBOR     0840   44     200/ 22/ 29 1006.1F
MICHIGAN CITY    0830   43     180/ 25/ 27   N/A

$$

INZ004-005-014>016-021>024-211000-
NORTH CENTRAL INDIANA

CITY           SKY/WX    TMP DP  RH WIND       PRES   REMARKS
GOSHEN         PTCLDY    39  25  57 SW17      29.74F WCI  30
PERU/GRISSOM   PTCLDY    40  27  59 SW18G26   29.79F WCI  31
SOUTH BEND     CLEAR     41  29  62 SW22G28   29.72F
WARSAW +       CLOUDY    39  27  60 SW7       29.76F WCI  34

$$

INZ006>009-017-018-025>027-211000-
NORTHEAST INDIANA

CITY           SKY/WX    TMP DP  RH WIND       PRES   REMARKS
FORT WAYNE     CLOUDY    40  27  59 SW21      29.80F WCI  30
KENDALLVILLE + PTCLDY    38  26  61 SW15      29.76F WCI  29

$$

INZ028-029-035-036-043>045-051>053-211000-
WEST CENTRAL INDIANA

CITY           SKY/WX    TMP DP  RH WIND       PRES   REMARKS
CRAWFORDSVL +  CLOUDY    37  27  68 S15       29.84F WCI  28
GREENCASTLE +  MOCLDY    41  23  48 SW8G20    29.88F
LAFAYETTE      MOCLDY    40  28  62 SW6       29.81F WCI  36
TERRE HAUTE    CLOUDY    40  25  55 S12       29.89F WCI  33

$$

INZ030>032-037>040-046>048-054>057-064-065-211000-
CENTRAL INDIANA

CITY           SKY/WX    TMP DP  RH WIND       PRES   REMARKS
INDIANAPOLIS   CLOUDY    42  24  49 SW16      29.88F
-EAGLE CREEK   CLOUDY    43  23  45 SW14G21   29.87F
KOKOMO +       PTCLDY    41  26  55 SW20G30   29.82F
MT COMFORT *+  PTCLDY    36  28  75 S10       29.88F WCI  28
SHELBYVILLE    CLOUDY    38  24  57 S14       29.90F WCI  30

$$

INZ033-034-041-042-049-050-058-059-211000-
EAST CENTRAL INDIANA

CITY           SKY/WX    TMP DP  RH WIND       PRES   REMARKS
MUNCIE         CLOUDY    42  23  46 SW14G24   29.85F
RICHMOND +     CLEAR     32  27  80 S13       29.92F WCI  22

$$

INZ060-061-067>069-081>083-085>088-211000-
SOUTHWEST INDIANA

CITY           SKY/WX    TMP DP  RH WIND       PRES   REMARKS
EVANSVILLE     CLOUDY    38  28  67 S7        29.98F WCI  33
HUNTINGBURG +  CLEAR     39  27  62 S10       29.99F WCI  32

$$

INZ062-063-066-070>080-084-089>092-211000-
SOUTH CENTRAL AND SOUTHEAST INDIANA

CITY           SKY/WX    TMP DP  RH WIND       PRES   REMARKS
BLOOMINGTON    CLEAR     43  23  45 SW15G24   29.92F
MADISON *+     CLEAR     36  23  60 S3        30.00S
SEYMOUR +      PTCLDY    39  25  56 S7        29.96F WCI  34

$$




USA.gov is the U.S. government's official web portal to all federal, state and local government web resources and services.